This is the latest recevied weather packets stored in our database for station/object AA0PB. If no packets are shown the sender has not sent any weather packets the latest 1 day(s).
| Time | Temp. | Humidity | Pressure | Rain* | Wind** | Luminosity | Snow |
|---|---|---|---|---|---|---|---|
| 1778048766 | 15.56° C | 85% | 1017.8 hPa | 0 mm | - | 0 W/m² | - |
| 1778048463 | 15.56° C | 85% | 1017.4 hPa | 0 mm | - | 0 W/m² | - |
| 1778047555 | 15.56° C | 83% | 1017.6 hPa | 0 mm | - | 0 W/m² | - |
| 1778046949 | 15.56° C | 83% | 1017.6 hPa | 0 mm | - | 0 W/m² | - |
| 1778046342 | 15.56° C | 83% | 1017.4 hPa | 0 mm | - | 0 W/m² | - |
| 1778046038 | 15.56° C | 84% | 1017.4 hPa | 0 mm | - | 0 W/m² | - |
| 1778045132 | 15.56° C | 86% | 1017.3 hPa | 0 mm | - | 0 W/m² | - |
| 1778044830 | 15.56° C | 85% | 1017.4 hPa | 0 mm | - | 0 W/m² | - |
| 1778043619 | 15.56° C | 85% | 1017.2 hPa | 0 mm | - | 0 W/m² | - |
| 1778043314 | 15.56° C | 85% | 1017.3 hPa | 0 mm | - | 0 W/m² | - |
| 1778042103 | 15.56° C | 82% | 1017.1 hPa | 0 mm | - | 0 W/m² | - |
| 1778041801 | 15.56° C | 81% | 1017.1 hPa | 0 mm | - | 0 W/m² | - |
| 1778041501 | 16.11° C | 80% | 1016.9 hPa | 0 mm | - | 0 W/m² | - |
| 1778041198 | 16.11° C | 78% | 1016.9 hPa | 0 mm | - | 0 W/m² | - |
| 1778040896 | 16.11° C | 79% | 1016.9 hPa | 0 mm | - | 0 W/m² | - |
| 1778040593 | 16.11° C | 79% | 1016.7 hPa | 0 mm | - | 0 W/m² | - |
| 1778040291 | 16.11° C | 79% | 1016.7 hPa | 0 mm | - | 0 W/m² | - |
| 1778039986 | 16.11° C | 79% | 1016.7 hPa | 0 mm | - | 0 W/m² | - |
| 1778039684 | 16.11° C | 79% | 1016.4 hPa | 0 mm | - | 0 W/m² | - |
| 1778039380 | 16.11° C | 78% | 1016.5 hPa | 0 mm | - | 0 W/m² | - |
| 1778039078 | 16.11° C | 78% | 1016.4 hPa | 0 mm | - | 0 W/m² | - |
| 1778038775 | 16.11° C | 77% | 1016.2 hPa | 0 mm | - | 1 W/m² | - |
| 1778038472 | 16.67° C | 77% | 1016.2 hPa | 0 mm | - | 1 W/m² | - |
| 1778037866 | 16.67° C | 77% | 1016.1 hPa | 0 mm | - | 4 W/m² | - |
| 1778037562 | 16.67° C | 76% | 1016.3 hPa | 0 mm | - | 5 W/m² | - |
* Rain latest hour (hover to see other rain measurements)
** Current wind speed in m/s (hover to see current wind gust speed)